When you browse on this site, cookies collect data to enhance your experience and personalize the content and advertising you see.
Visit our Privacy Policy to learn more. By continuing to use the site, you agree to this use of cookies and data.
  • In Austria
  • List of Countries
  • For 7 days
  • Water Temperature
  • Weather Map
  • News
  • Weather Widgets
  • user-avatar
    Login

    Hourly Weather Veresnica

    Today, 24 February, Monday

    Time Temperature Precipitation Wind Pressure Humidity
    00:00 +3°C° 0.2 mm 2 mps 737 mmHg 91%
    01:00 +3°C° 0.2 mm 2 mps 736 mmHg 92%
    02:00 +4°C° 0 mm 1 mps 735 mmHg 95%
    03:00 +4°C° 0.5 mm 1 mps 735 mmHg 95%
    04:00 +2°C° 0.5 mm 2 mps 734 mmHg 95%
    05:00 +1°C° 0.5 mm 3 mps 733 mmHg 95%
    06:00 0°C° 0 mm 4 mps 735 mmHg 93%
    07:00 0°C° 0 mm 4 mps 736 mmHg 90%
    08:00 0°C° 0 mm 4 mps 738 mmHg 86%
    09:00 0°C° 0 mm 5 mps 739 mmHg 84%
    10:00 +1°C° 0 mm 6 mps 739 mmHg 82%
    11:00 +1°C° 0 mm 6 mps 740 mmHg 80%
    12:00 0°C° 0 mm 7 mps 741 mmHg 79%
    13:00 0°C° 0 mm 7 mps 741 mmHg 78%
    14:00 +2°C° 0 mm 7 mps 741 mmHg 76%
    15:00 +2°C° 0 mm 6 mps 742 mmHg 70%
    16:00 +2°C° 0 mm 6 mps 743 mmHg 63%
    17:00 +3°C° 0 mm 5 mps 743 mmHg 56%
    18:00 +3°C° 0 mm 4 mps 744 mmHg 61%
    19:00 +1°C° 0 mm 4 mps 745 mmHg 66%
    20:00 +1°C° 0 mm 3 mps 745 mmHg 72%
    21:00 +1°C° 0 mm 3 mps 746 mmHg 75%
    22:00 0°C° 0 mm 3 mps 746 mmHg 78%
    23:00 -1°C° 0 mm 3 mps 746 mmHg 81%

    Tomorrow, 25 February, Tuesday

    Time Temperature Precipitation Wind Pressure Humidity
    00:00 -1°C° 0 mm 2 mps 746 mmHg 82%
    01:00 -1°C° 0 mm 2 mps 746 mmHg 84%
    02:00 -1°C° 0 mm 2 mps 746 mmHg 85%
    03:00 -1°C° 0 mm 2 mps 746 mmHg 86%
    04:00 -1°C° 0 mm 2 mps 745 mmHg 87%
    05:00 -1°C° 0 mm 2 mps 744 mmHg 88%
    06:00 -1°C° 0 mm 2 mps 744 mmHg 89%
    07:00 -1°C° 0 mm 3 mps 744 mmHg 89%
    08:00 0°C° 0 mm 3 mps 744 mmHg 90%
    09:00 0°C° 0 mm 3 mps 743 mmHg 90%
    10:00 0°C° 0 mm 4 mps 742 mmHg 90%
    11:00 0°C° 0 mm 4 mps 742 mmHg 90%
    12:00 0°C° 0.1 mm 4 mps 741 mmHg 92%
    13:00 0°C° 0.1 mm 4 mps 740 mmHg 93%
    14:00 0°C° 0.1 mm 4 mps 740 mmHg 95%
    15:00 0°C° 0.2 mm 4 mps 739 mmHg 95%
    16:00 +1°C° 0.2 mm 4 mps 739 mmHg 95%
    17:00 +1°C° 0.2 mm 4 mps 738 mmHg 95%
    18:00 +3°C° 0.2 mm 4 mps 738 mmHg 94%
    19:00 +3°C° 0.2 mm 4 mps 738 mmHg 93%
    20:00 +3°C° 0.2 mm 4 mps 738 mmHg 93%
    21:00 +3°C° 0 mm 4 mps 737 mmHg 93%
    22:00 +3°C° 0 mm 4 mps 737 mmHg 92%
    23:00 +3°C° 0 mm 4 mps 737 mmHg 92%

    Day after tomorrow, 26 February, Wednesday

    Time Temperature Precipitation Wind Pressure Humidity
    00:00 +3°C° 0 mm 4 mps 736 mmHg 93%
    01:00 +3°C° 0 mm 4 mps 736 mmHg 93%
    02:00 +3°C° 0 mm 4 mps 735 mmHg 94%
    03:00 +4°C° 0.6 mm 4 mps 735 mmHg 94%
    04:00 +4°C° 0.6 mm 4 mps 734 mmHg 94%
    05:00 +4°C° 0.6 mm 4 mps 734 mmHg 94%
    06:00 +4°C° 0.1 mm 3 mps 734 mmHg 93%
    07:00 +4°C° 0.1 mm 3 mps 734 mmHg 92%
    08:00 +4°C° 0.1 mm 3 mps 734 mmHg 90%
    09:00 +5°C° 0 mm 2 mps 734 mmHg 82%
    10:00 +6°C° 0 mm 2 mps 734 mmHg 73%
    11:00 +6°C° 0 mm 2 mps 734 mmHg 64%
    12:00 +7°C° 0 mm 2 mps 734 mmHg 61%
    13:00 +7°C° 0 mm 2 mps 734 mmHg 57%
    14:00 +7°C° 0 mm 2 mps 734 mmHg 54%
    15:00 +8°C° 0 mm 1 mps 733 mmHg 58%
    16:00 +8°C° 0 mm 1 mps 733 mmHg 62%
    17:00 +7°C° 0 mm 0 mps 732 mmHg 66%
    18:00 +7°C° 0.3 mm 1 mps 732 mmHg 72%
    19:00 +6°C° 0.3 mm 1 mps 732 mmHg 79%
    20:00 +6°C° 0.3 mm 1 mps 732 mmHg 85%
    21:00 +6°C° 0.3 mm 1 mps 732 mmHg 87%
    22:00 +4°C° 0.3 mm 2 mps 732 mmHg 89%
    23:00 +4°C° 0.3 mm 2 mps 732 mmHg 92%

    27 February, Thursday

    Time Temperature Precipitation Wind Pressure Humidity
    00:00 +4°C° 0.1 mm 2 mps 732 mmHg 92%
    01:00 +5°C° 0.1 mm 1 mps 732 mmHg 93%
    02:00 +4°C° 0.1 mm 1 mps 732 mmHg 93%
    03:00 +4°C° 0 mm 1 mps 732 mmHg 93%
    04:00 +4°C° 0 mm 1 mps 732 mmHg 94%
    05:00 +4°C° 0 mm 1 mps 732 mmHg 94%
    06:00 +3°C° 0 mm 2 mps 732 mmHg 93%
    07:00 +3°C° 0 mm 2 mps 733 mmHg 93%
    08:00 +2°C° 0 mm 3 mps 733 mmHg 92%
    09:00 +1°C° 0 mm 4 mps 733 mmHg 86%
    10:00 +1°C° 0 mm 4 mps 734 mmHg 80%
    11:00 +2°C° 0 mm 5 mps 734 mmHg 74%
    12:00 +2°C° 0 mm 5 mps 734 mmHg 74%
    13:00 +2°C° 0 mm 5 mps 734 mmHg 73%
    14:00 +2°C° 0 mm 5 mps 735 mmHg 72%
    15:00 +3°C° 0.1 mm 4 mps 735 mmHg 72%
    16:00 +3°C° 0.1 mm 4 mps 735 mmHg 72%
    17:00 +2°C° 0.1 mm 3 mps 736 mmHg 72%
    18:00 +2°C° 0.2 mm 3 mps 736 mmHg 75%
    19:00 +1°C° 0.2 mm 3 mps 737 mmHg 78%
    20:00 0°C° 0.2 mm 3 mps 737 mmHg 81%
    21:00 -1°C° 0 mm 3 mps 737 mmHg 79%
    22:00 -1°C° 0 mm 3 mps 738 mmHg 77%
    23:00 -2°C° 0 mm 3 mps 738 mmHg 75%

    28 February, Friday

    Time Temperature Precipitation Wind Pressure Humidity
    00:00 -2°C° 0 mm 3 mps 738 mmHg 73%
    01:00 -2°C° 0 mm 3 mps 738 mmHg 71%
    02:00 -2°C° 0 mm 3 mps 738 mmHg 68%
    03:00 -2°C° 0 mm 3 mps 738 mmHg 68%
    04:00 -2°C° 0 mm 3 mps 738 mmHg 68%
    05:00 -2°C° 0 mm 3 mps 738 mmHg 67%
    06:00 -4°C° 0 mm 4 mps 738 mmHg 67%
    07:00 -4°C° 0 mm 4 mps 738 mmHg 66%
    08:00 -5°C° 0 mm 5 mps 739 mmHg 66%
    09:00 -4°C° 0 mm 5 mps 739 mmHg 60%
    10:00 -3°C° 0 mm 6 mps 739 mmHg 55%
    11:00 -2°C° 0 mm 6 mps 739 mmHg 49%
    12:00 -2°C° 0 mm 7 mps 739 mmHg 49%
    13:00 -2°C° 0 mm 7 mps 739 mmHg 48%
    14:00 -1°C° 0 mm 7 mps 739 mmHg 47%
    15:00 -2°C° 0.1 mm 7 mps 740 mmHg 56%
    16:00 -3°C° 0.1 mm 7 mps 740 mmHg 66%
    17:00 -3°C° 0.1 mm 7 mps 740 mmHg 75%
    18:00 -3°C° 0.1 mm 6 mps 741 mmHg 73%
    19:00 -4°C° 0.1 mm 6 mps 741 mmHg 70%
    20:00 -4°C° 0.1 mm 6 mps 742 mmHg 68%
    21:00 -4°C° 0 mm 5 mps 742 mmHg 67%
    22:00 -5°C° 0 mm 5 mps 742 mmHg 67%
    23:00 -5°C° 0 mm 5 mps 742 mmHg 67%

    29 February, Saturday

    Time Temperature Precipitation Wind Pressure Humidity
    00:00 -5°C° 0 mm 5 mps 742 mmHg 65%
    01:00 -5°C° 0 mm 5 mps 742 mmHg 64%
    02:00 -6°C° 0 mm 5 mps 743 mmHg 63%
    03:00 -6°C° 0 mm 5 mps 743 mmHg 61%
    04:00 -6°C° 0 mm 5 mps 743 mmHg 59%
    05:00 -6°C° 0 mm 6 mps 743 mmHg 57%
    06:00 -6°C° 0 mm 6 mps 743 mmHg 56%
    07:00 -6°C° 0 mm 6 mps 743 mmHg 55%
    08:00 -6°C° 0 mm 6 mps 743 mmHg 55%
    09:00 -5°C° 0 mm 5 mps 743 mmHg 53%
    10:00 -4°C° 0 mm 5 mps 743 mmHg 52%
    11:00 -2°C° 0 mm 5 mps 743 mmHg 50%
    12:00 -2°C° 0 mm 5 mps 743 mmHg 49%
    13:00 -1°C° 0 mm 4 mps 743 mmHg 47%
    14:00 -1°C° 0 mm 4 mps 742 mmHg 46%
    15:00 0°C° 0 mm 3 mps 742 mmHg 50%
    16:00 +1°C° 0 mm 2 mps 742 mmHg 54%
    17:00 +1°C° 0 mm 1 mps 742 mmHg 58%
    18:00 -2°C° 0 mm 2 mps 742 mmHg 60%
    19:00 -2°C° 0 mm 2 mps 742 mmHg 63%
    20:00 -3°C° 0 mm 2 mps 741 mmHg 66%
    21:00 -4°C° 0 mm 3 mps 741 mmHg 69%
    22:00 -2°C° 0 mm 3 mps 740 mmHg 73%
    23:00 -3°C° 0 mm 4 mps 740 mmHg 76%
    Show more